Regional Weather Roundup
Issued by NWS Albany, NY

Current Version | Previous Version | Graphics & Text | Print | Product List | Glossary Off
Versions: 1 2 3 4 5 6 7 8 9 10 11 12 13 14 15 16 17 18 19 20 21 22 23 24 25 26 27

000
ASUS41 KALY 250110
RWRALY

NEW YORK STATE HOURLY WEATHER ROUNDUP
NATIONAL WEATHER SERVICE ALBANY NY
900 PM EDT SUN JUL 24 2016

NOTE: "FAIR" INDICATES FEW OR NO CLOUDS BELOW 12,000 FEET WITH NO
SIGNIFICANT WEATHER AND/OR NO OBSTRUCTIONS TO VISIBILITY.

NYZ032-033-038>043-046>054-057>066-NYZ062>081-082-084-250200-
EAST


CITY           SKY/WX    TMP DP  RH WIND       PRES   REMARKS
ALBANY         MOCLDY    80  58  46 CALM      29.95S
GLENS FALLS    CLOUDY    72  64  76 CALM      29.96S
POUGHKEEPSIE   MOCLDY    78  66  66 CALM      29.93R
NEWBURGH       MOCLDY    82  61  47 VRB5      29.97R
MONTGOMERY     CLOUDY    77  66  68 CALM      29.95R
WHITE PLAINS   MOCLDY    76  65  68 E3        29.97R
ISLIP          CLOUDY    77  71  82 S6        29.98R
NEW YORK CITY  CLOUDY    87  68  52 SW10      29.94R HX  90
CENTRAL PARK   CLOUDY    83  66  56 VRB6      29.98R
$$

NYZ005>009-017-018-044>046-055-056-250200-
CENTRAL


CITY           SKY/WX    TMP DP  RH WIND       PRES   REMARKS
FULTON         CLOUDY    73  64  73 CALM      29.96S
SYRACUSE       CLOUDY    75  62  64 NE3       29.95R
ROME           CLOUDY    72  67  84 E5        29.97R
ELMIRA         PTCLDY    81  58  45 NE5       29.95S
BINGHAMTON     MOCLDY    77  60  55 E8        29.99F
MONTICELLO     CLOUDY    75  63  64 CALM      30.02S
$$

NYZ026>034-041>043-087-250200-
NORTH


CITY           SKY/WX    TMP DP  RH WIND       PRES   REMARKS
WATERTOWN      CLOUDY    73  58  59 E3        29.95S
FORT DRUM      NOT AVBL
MASSENA        MOCLDY    69  60  73 CALM      29.97F
SARANAC LAKE   CLEAR     63  56  78 CALM      30.02R
PLATTSBURGH    PTCLDY    65  61  87 CALM      29.98S
$$

NYZ001>004-010>016-019>021-085-250200-
WEST


CITY           SKY/WX    TMP DP  RH WIND       PRES   REMARKS
NIAGARA FALLS  PTCLDY    82  54  37 S5        29.94
BUFFALO        MOCLDY    81  53  37 SW5       29.95S
DUNKIRK        PTCLDY    75  67  76 SW5       29.97S
JAMESTOWN      CLOUDY    73  66  78 CALM      30.03S
WELLSVILLE     CLOUDY    78  57  48 W6        30.05R
ROCHESTER      MOCLDY    78  63  59 E6        29.96R
PENN YAN       CLOUDY    78  63  59 CALM      29.98R
$$

             KEY
       WCI = WIND CHILL INDEX
       VSB = VISIBILITY
       HX  = HEAT INDEX
$$




USA.gov is the U.S. government's official web portal to all federal, state and local government web resources and services.